Regional Weather Roundup
Issued by NWS

Home | Current Version | Previous Version | Graphics & Text | Print | Product List | Glossary On
Versions: 1 2 3 4 5 6 7 8 9 10 11 12 13 14 15 16 17 18 19 20 21 22 23 24 25 26 27 28 29 30 31 32 33 34 35 36 37 38 39 40 41 42 43 44 45 46 47 48 49 50
000
ASUS43 KTOP 211608
RWRKS

WEATHER ROUNDUP FOR KANSAS
NATIONAL WEATHER SERVICE GOODLAND KS
1100 AM CDT THU OCT 21 2021

NOTE:  "FAIR" INDICATES FEW OR NO CLOUDS BELOW 12,000 FEET WITH NO
SIGNIFICANT WEATHER AND/OR OBSTRUCTIONS TO VISIBILITY.

KSZ001>006-013>018-027>032-041>047-211700-
NORTHWEST KANSAS

CITY           SKY/WX    TMP DP  RH WIND       PRES   REMARKS
GOODLAND       FAIR      57  35  43 SW10      30.26R
HAYS           FAIR      47  34  60 NW8       30.29S
HILL CITY      FAIR      49  35  58 N7        30.29S
RUSSELL        FAIR      47  34  60 VRB6      30.27S
$$

KSZ061>065-074>080-084>089-211700-
SOUTHWEST KANSAS

CITY           SKY/WX    TMP DP  RH WIND       PRES   REMARKS
DODGE CITY     FAIR      55  41  59 NE3       30.28S
ELKHART        FAIR      60  37  41 S15       30.30F
GARDEN CITY    FAIR      59  38  45 S13       30.27S
GREAT BEND     FAIR      49  37  63 N3        30.29S
LIBERAL        FAIR      61  38  42 S12       30.29F
PRATT          FAIR      51  37  58 N5        30.30S
$$

KSZ066>073-081>083-090>101-211700-
SOUTHEAST KANSAS

CITY           SKY/WX    TMP DP  RH WIND       PRES   REMARKS
CHANUTE        FAIR      53  40  61 NW12      30.23S
COFFEYVILLE    FAIR      56  37  49 N12       30.24S
HUTCHINSON     FAIR      53  36  52 N8        30.28S
MEDICINE LODGE   N/A     55  39  54 N7        30.29S
NEWTON         FAIR      50  36  58 NW14      30.27R
PARSONS        FAIR      55  39  54 NW8       30.25S
WICHITA INTL   FAIR      51  37  58 NW13      30.28R
WICHITA JABRA  FAIR      51  37  58 NW9       30.27S
WICHITA MCCONL FAIR      52  36  55 NW13      30.27S
WINFIELD       FAIR      56  40  55 NW12      30.28R
$$

KSZ007>012-019>026-033>040-048>060-102>105-211700-
NORTHEAST KANSAS

CITY           SKY/WX    TMP DP  RH WIND       PRES   REMARKS
CONCORDIA      FAIR      48  36  63 N9        30.25S
EMPORIA        FAIR      50  38  63 NW13G24   30.24S
LAWRENCE       FAIR      51  40  65 NW14G20   30.22R
MANHATTAN      FAIR      49  35  58 N9        30.25S
MARYSVILLE     FAIR      48  34  57 N13       30.23S
OLATHE IND     FAIR      50  38  63 NW10      30.21R
OLATHE EXE     FAIR      50  38  63 NW9G18    30.19R
SALINA         FAIR      48  36  63 NW12      30.28S
TOPEKA BILLARD FAIR      51  38  60 NW12G18   30.23R
TOPEKA FORBES  FAIR      49  38  65 NW15      30.23R
$$



USA.gov is the U.S. government's official web portal to all federal, state and local government web resources and services.